Location: ??????
(41.3794°N, 22.5014°E)
Time: 22:19:35
(UTC+00:00)

CZ-4 R/B - Pass Details

Date: 30 November 2020
Orbit: 533 x 597 km, 97.7° (Epoch: 19 January)

Event Time Altitude Azimuth Distance (km) Brightness Sun altitude
Rises 17:32:45 0° 183° (S) 2,699 5.0 -27.8°
Enters shadow 17:34:49 - 191° (S) 1,864 4.2 -28.2°
Exits shadow 17:40:56 21° 321° (NW) 1,311 3.5 -29.3°
Drops below altitude 10° 17:42:28 10° 332° (NNW) 1,871 4.3 -29.6°
Sets 17:44:45 0° 340° (NNW) 2,785 5.1 -30.0°
